Home   Weather   Nantes   Past weeks

Flag for France Past Weather in Nantes, Pays de la Loire, France — Yesterday and Last 2 Weeks

43 °F

Light fog.

Feels Like: 41 °F
Forecast: 39 / 63 °F
Wind: 3 mph from Northeast

Location: Nantes Airport

Current Time: Oct 26, 2016 at 2:31:12 AM

Latest Report: Oct 26, 2016 at 2:00 AM

Visibility: 3 mi

Pressure: 30.27 "Hg

Humidity: 100%

Dew Point: 43 °F

Location of NantesLocation

Past Weather in Nantes — Graph


Nantes Temperature Yesterday

Maximum temperature yesterday: 61 °F (at 4:30 PM)
Minimum temperature yesterday: 50 °F (at 12:00 AM)
Average temperature yesterday: 54 °F

High & Low Weather Summary for the Past Weeks

High66 °F (Oct 17, 2:00 PM)100% (Oct 15, 12:00 AM)30.33 "Hg (Oct 15, 12:00 AM)
Low39 °F (Oct 20, 5:30 AM)39% (Oct 12, 4:00 PM)29.53 "Hg (Oct 23, 3:00 PM)
Average52 °F83%29.96 "Hg
* Reported Oct 11 1:00 AM — Oct 26 1:00 AM, Nantes, Weather by CustomWeather, © 2016

Note: Actual official high and low records may vary slightly from our data, if they occured in-between our weather recording intervals... More about our weather records


Nantes Weather History for the Previous 24 Hours

Scroll right to see more
Time TempWeatherWind HumidityBarometerVisibility
1:00 AM
Wed, Oct 26
45 °FLight fog.2 mph100%30.24 "Hg2 mi
12:30 AM45 °FLight fog.2 mph100%30.24 "Hg2 mi
12:00 AM48 °FFog.2 mph94%30.24 "Hg2 mi
11:30 PM
Tue, Oct 25
50 °FFog.2 mph100%30.24 "Hg3 mi
11:00 PM50 °FFog.2 mph88%30.24 "Hg3 mi
10:30 PM52 °FClear.3 mph94%30.24 "Hg4 mi
10:00 PM52 °FClear.3 mph94%30.24 "Hg4 mi
9:30 PM52 °FClear.3 mph94%30.24 "Hg4 mi
9:00 PM54 °FClear.2 mph88%30.21 "Hg4 mi
8:30 PM55 °FClear.3 mph88%30.21 "Hg5 mi
8:00 PM55 °FClear.2 mph88%30.21 "Hg10 mi
7:30 PM55 °FClear.2 mph88%30.21 "Hg10 mi
7:00 PM57 °FPassing clouds.3 mph82%30.18 "HgN/A
6:30 PM59 °FPassing clouds.5 mph77%30.18 "HgN/A
6:00 PM59 °FSunny.7 mph82%30.18 "Hg10 mi
5:30 PM61 °FPartly sunny.8 mph77%30.18 "HgN/A
5:00 PM59 °FPassing clouds.8 mph77%30.18 "HgN/A
4:30 PM61 °FScattered clouds.9 mph72%30.15 "HgN/A
4:00 PM59 °FPartly sunny.8 mph77%30.15 "HgN/A
3:30 PM59 °FOvercast.10 mph82%30.15 "HgN/A
3:00 PM59 °FOvercast.8 mph82%30.15 "HgN/A
2:30 PM57 °FOvercast.6 mph82%30.15 "HgN/A
2:00 PM57 °FOvercast.7 mph82%30.15 "HgN/A
1:30 PM57 °FOvercast.6 mph82%30.15 "HgN/A
1:00 PM57 °FOvercast.7 mph82%30.15 "HgN/A
12:30 PM55 °FOvercast.6 mph88%30.15 "HgN/A
12:00 PM55 °FOvercast.6 mph94%30.15 "HgN/A
11:30 AM55 °FOvercast.5 mph94%30.15 "HgN/A
11:00 AM54 °FOvercast.3 mph100%30.12 "Hg6 mi
10:30 AM54 °FOvercast.3 mph100%30.12 "Hg4 mi
10:00 AM54 °FLow clouds.3 mph94%30.12 "Hg4 mi
9:30 AM52 °FFog.3 mph100%30.12 "Hg3 mi
9:00 AM52 °FFog.No wind100%30.09 "Hg2 mi
8:30 AM52 °FDense fog.1 mph100%30.09 "Hg1 mi
8:00 AM52 °FFog.1 mph100%30.09 "Hg1 mi
7:30 AM52 °FFog.No wind100%30.09 "Hg1 mi
7:00 AM52 °FFog.2 mph100%30.09 "Hg1 mi
6:30 AM54 °FFog.2 mph94%30.07 "Hg1 mi
6:00 AM54 °FFog.No wind100%30.07 "Hg1 mi
5:30 AM54 °FFog.1 mph100%30.07 "Hg2 mi
5:00 AM54 °FDense fog.No wind100%30.07 "Hg1 mi
4:30 AM54 °FDense fog.1 mph100%30.07 "Hg1 mi
4:00 AM54 °FFog.1 mph100%30.07 "Hg1 mi
3:30 AM54 °FFog.2 mph94%30.07 "Hg1 mi
3:00 AM52 °FFog.No wind100%30.04 "Hg1 mi
2:30 AM52 °FFog.No wind100%30.04 "Hg0 mi
2:00 AM52 °FFog.No wind100%30.04 "Hg0 mi
Weather by CustomWeather, © 2016

See weather overviewHow to use our weather pages